DRAGON CRS-20

Last updated on Wed Apr 08 2020 00:02:11 GMT+0000 (Coordinated Universal Time)

1 45341U 20016A 20098.65046441 -.03613273 00000-0 -72218-1 0 9993 2 45341 51.6432 337.5161 0010224 31.3734 354.3442 15.50379704 4882

Satellite not in orbit